Location: Caucaguita
(10.3578°N, 66.8025°W)
Time: 02:00:58
(UTC+00:00)

Tiangong - Pass Details

Date: 18 November 2025
Orbit: 384 x 397 km, 41.5° (Epoch: 08 December)

Event Time Altitude Azimuth Distance (km) Brightness Sun altitude
Rises 23:13:15 0° 292° (WNW) 2,259 2.6 -17.6°
Reaches altitude 10° 23:15:41 10° 274° (W) 1,402 1.8 -18.2°
Maximum altitude 23:18:04 20° 225° (SW) 968 0.6 -18.8°
Drops below altitude 10° 23:20:27 10° 176° (S) 1,396 0.8 -19.3°
Enters shadow 23:22:12 - 161° (SSE) 2,001 1.5 -19.7°
